User: anonymous   Login
Location: Unspecified
(0.0000°N, 0.0000°E)
Time: 09:38:41
(UTC+00:00)
Language:

NOSS 2-3 (D) - Orbit

View from above orbital plane
View from above orbital plane
View from above satellite
View from above satellite

Ground track
Ground track

The orbit data is extracted from the following two-line orbital elements,

1 23862U 96029D   24107.90268701 0.00003500  00000-0  78784-3 0    02
2 23862  63.3320  96.2093 0808313  38.4429 321.5571 13.42630342    04
Epoch (UTC): 16 April 2024 21:39:52
Eccentricity: 0.0808313
inclination: 63.3320°
perigee height: 495 km
apogee height: 1704 km
right ascension of ascending node: 96.2093°
argument of perigee: 38.4429°
revolutions per day: 13.42630342
mean anomaly at epoch: 321.5571°
orbit number at epoch: 0

The dashed part of the orbit path shows where the satellite is in the earth's shadow,  

DLR